Regional Weather Roundup
Issued by NWS Wakefield, VA

Home | Current Version | Previous Version | Graphics & Text | Print | Product List | Glossary On
Versions: 1 2 3 4 5 6 7 8 9 10 11 12 13 14 15 16 17 18 19 20 21 22 23 24 25 26 27 28 29 30 31 32 33 34 35 36 37 38 39 40 41 42 43 44 45 46 47 48 49 50
000
ASUS41 KAKQ 282110
RWRAKQ

REGIONAL WEATHER ROUNDUP
NATIONAL WEATHER SERVICE WAKEFIELD VA
500 PM EDT MON JUL 28 2014

Note: "fair" indicates few or no clouds below 12,000 feet with no
significant weather and/or obstructions to visibility. * = Denotes
station may not report precipitation (e.g., rain,snow,etc.),
thunder or fog.

VAZ042-051-052>054-056-282200-
NORTHERN VIRGINIA

CITY           SKY/WX    TMP DP  RH WIND       PRES   REMARKS
WASH NATIONAL  MOSUNNY   85  57  38 W20G28    29.69S
DULLES         PTSUNNY   80  55  42 W20G26    29.71R
FORT BELVOIR   MOSUNNY   82  58  44 W14G22    29.70S
QUANTICO       PTSUNNY   84  56  38 W16G25    29.71R
FREDERICKSBRG* SUNNY     85  55  35 W15G23    29.71R
STAFFORD*      MOSUNNY   83  55  38 W10G22    29.76R
WARRENTON      SUNNY     81  63  54 W8G16     29.73R
CULPEPER*      MOSUNNY  N/A N/A N/A W8        29.74R
MANASSAS*      MOSUNNY   81  57  44 W13G22    29.72R
LEESBURG*      PTSUNNY   81  61  50 W17G25    29.73R
WINCHESTER     CLOUDY    77  55  47 W16G25    29.75R
$$

VAZ048-049-060>072-079>083-282200-
CENTRAL AND SOUTH CENTRAL VIRGINIA...AND NORTH CENTRAL NORTH CAROLINA

CITY           SKY/WX    TMP DP  RH WIND       PRES   REMARKS
RICHMOND       MOSUNNY   88  55  32 W14G22    29.73S
CHESTERFIELD*  CLEAR     84  55  37 NW16G23   29.76S
HANOVER        PTSUNNY   85  55  35 W16G23    29.75R
TAPPAHANNOCK*  MOSUNNY   86  51  29 W13G21    29.71S
CHARLOTTSVILLE MOSUNNY   78  55  44 NW12G20   29.77R
ORANGE*        SUNNY     81  55  41 SW14      29.76S
LOUISA*        SUNNY     82  59  44 W9G20     29.74S
FARMVILLE*     PTSUNNY   81  54  39 W6        29.77R
SOUTH HILL*    MOSUNNY   84  61  45 W8        29.84S
ROANOKE RAPIDS NOT AVBL
RALEIGH        PTSUNNY   86  60  41 NW7       29.80S
$$

VAZ088>098-282200-
SOUTHEAST VIRGINIA

CITY           SKY/WX    TMP DP  RH WIND       PRES   REMARKS
NORFOLK        MOSUNNY   87  61  41 W9G17     29.72R
VIRGINIA BEACH PTSUNNY   85  61  44 W12       29.71S
NORFOLK NAVAL  PTSUNNY   85  63  47 W12G20    29.74R
WEST POINT*    PTSUNNY   87  58  37 W9        29.73R
NEWPORT NEWS   PTSUNNY   90  61  37 W13       29.73R
LANGLEY AFB    PTSUNNY   85  62  45 W17       29.72R
FORT EUSTIS    PTSUNNY   85  63  48 W9        29.71R
WILLIAMSBURG*  MOSUNNY   90  63  40 W10G18    29.74R
FRANKLIN*      MOSUNNY   86  61  42 W12G21    29.75S
WAKEFIELD      MOSUNNY   86  59  39 W10G16    29.75R
$$

VAZ020-022-025-037-045-282200-
WESTERN AND SOUTHWEST VIRGINIA

CITY           SKY/WX    TMP DP  RH WIND       PRES   REMARKS
STAUNTON*      PTSUNNY   75  51  44 W10G21    29.83S
HOT SPRINGS VA CLOUDY    59  48  66 W15G26    29.96R
LYNCHBURG      CLOUDY    77  58  51 W7        29.84R
DANVILLE       CLOUDY    83  56  39 NW15G22   29.82S
MARTINSVILLE   CLOUDY    82  56  41 NW7       29.88R
ROANOKE        PTSUNNY   76  55  48 W15G23    29.87R
BLACKSBURG       N/A    N/A N/A N/A W9        29.95R
DUBLIN*        CLOUDY    73  58  59 NW8       29.94R
MARION*        CLOUDY   N/A N/A N/A W13G20    29.98S
HILLSVILLE*    CLOUDY    70  55  57 W15G24    29.95S
RICHLANDS*     CLOUDY    70  59  67 NW7       29.99R
WISE*          PTSUNNY   68  54  60 NW7       30.02S
ABINGDON*      CLOUDY    73  58  60 NW12G17   29.97S
$$

MDZ021>025-VAZ099-100-282200-
SOUTHERN MARYLAND AND THE DELMARVA PENINSULA

CITY           SKY/WX    TMP DP  RH WIND       PRES   REMARKS
PATUXENT RIVER MOSUNNY   86  58  38 NW13      29.68R
BAY BRIDGE APT   N/A     82  55  39 W15G26    29.67R
LEONARDTOWN    MOSUNNY   82  55  39 W12G21    29.71R
DOVER          PTSUNNY   81  59  45 W14G24    29.63R
GEORGETOWN     MOSUNNY   84  58  40 SW8G21    29.66R
EASTON         MOSUNNY   84  61  45 NW9G20    29.71R
CAMBRIDGE      SUNNY     84  55  37 W13G20    29.67R
SALISBURY      NOT AVBL
OCEAN CITY     MOSUNNY   86  60  41 W12       29.67R
WALLOPS ISLAND CLOUDY    83  61  47 W8        29.69R
ACCOMACK*        N/A     81  63  54 W5        29.70R
$$

NCZ012>017-030>032-282200-
EASTERN NORTH CAROLINA

CITY           SKY/WX    TMP DP  RH WIND       PRES   REMARKS
ELIZABETH CITY SUNNY     86  63  45 W15G23    29.74S
AHOSKIE*       SUNNY     85  62  45 W3        29.76F
EDENTON*       MOSUNNY   87  66  49 NW12      29.75F
CURRITUCK*     SUNNY     89  58  34 W13G18    29.74F
KILL DEVIL HLS SUNNY     87  67  51 W12       29.74S
MANTEO         NOT AVBL
CAPE HATTERAS  PTSUNNY   85  78  80 SW9       29.77S HAZE    HX  96
GOLDSBORO      SUNNY     90  67  45 NW13      29.74F
WASHINGTON     SUNNY     87  66  48 NW9G16    29.75F
GREENVILLE     SUNNY     88  66  48 NW6       29.78F
NEW BERN       LGT RAIN  77  70  79 E3        29.77S
WILMINGTON     TSTM      86  73  65 MISG      29.75F
$$

VAZ048-282200-
ELSEWHERE

CITY           SKY/WX    TMP DP  RH WIND       PRES   REMARKS
HARRISBURG PA  PTSUNNY   78  60  53 W10       29.64R
BALTIMORE      PTSUNNY   80  57  45 W21G29    29.67R
ANNAPOLIS      MOSUNNY   82  56  40 W16G24    29.67R
ANDREWS AFB    PTSUNNY   83  58  41 W15G28    29.69R
WILMINGTON DE  MOSUNNY   80  57  45 W20G28    29.64R
PHILADELPHIA   PTSUNNY   83  58  42 W18       29.61R
WILDWOOD NJ*   SUNNY     82  61  47 W12       29.66R
ATLANTIC CITY  PTSUNNY   82  59  45 W14G22    29.61R
HENDERSON NC   PTSUNNY   85  56  37 NW7       29.81S
GREENSBORO     MOSUNNY   86  56  35 NW18      29.84R
ROCKY MOUNT    MOSUNNY   88  62  41 NW10G20   29.77F
FAYETTEVILLE   MOSUNNY   95  61  32 NW12      29.75F HX  95
CHARLOTTE      MOSUNNY   87  56  34 NW6G21    29.85R
$$

VAZ100-282200-
MARINE

STATION/POSITION TIME  TEMP    WIND        PRES    WAVE   SWELL
                       AIR SEA DIR/SP/G            HT/PER HT/PER
                 (UTC) (F)     (DEG/KT/KT) (MB)    (FT/S) (FT/S)
44066 TX TWR #4  2100   76 75  230/ 14/ 16 1002.0R   5/ 6   2/ 8
CAPE MAY NJ      2100   80 80  280/ 12/ 16 1003.5R
LEWES DE         2100   82 73  290/ 12/ 16 1003.7S
15NM E FENWICK I 2100   78 74              1004.4R   4/ 7
OCEAN-CITY-INLET 2100   82 74  280/  8/ 11 1004.1R
WACHAPREAGUE VA  2100   83 84  280/  2/  5 1005.8R
THOMAS POINT MD  2100   80 79  290/ 20/ 24 1005.1R
GOOSES REEF MD   2100   81     310/ 16/ 21 1005.4R
COVE POINT MD    2100   81     320/ 13/ 19 1005.1R
SOLOMONS ISLAND  2100      80                N/A
BISHOPS HEAD MD  2100   82 82  290/ 14/ 17 1004.9R
PINEY POINT MD   2100          320/ 17/ 20   N/A
POTOMAC MD       2100   81     330/ 12/ 14 1004.5R
CAMBRIDGE MD     2100   82 80  270/ 13/ 18 1004.6R
LEWISETTA VA     2100   84 81  300/ 15/ 21 1005.3R
RAPPAHANNOCK LGT 2100          270/ 15/ 17 1006.2S
STINGRAY PT      2100   83     290/ 14/ 17 1006.5S
YORK RVR RNG VA  2100   84     280/ 17/ 21 1005.5R
YORKTOWN VA      2100   84 81  260/ 15/ 19 1006.0R
JAMESTOWN VA     2100   83     290/ 14/ 19   N/A
DOMINION TERM VA 2100   83     280/ 15/ 19 1006.6R
KIPTOPEKE VA     2100      82  290/ 14/ 17   N/A
CHES BAY BRIDGE  2100   83 78  250/ 18/ 19 1005.7S
CAPE HENRY VA    2100   85     260/ 13/ 18 1005.0S
WILLOUBY STN VA  2100          270/ 22/ 24 1005.4F
S CRANEY ISL VA  2100          250/ 13/ 18 1006.7R
CAPE HENRY BUOY  2100      78                N/A     3/ 9
1ST LANDING BUOY 2100   83     270/ 16/ 19 1006.1S
CAPE CHARLES BUO 2100      77                N/A     3/ 9
OFFSHORE WE BUOY 2100      79                N/A     3/ 6
64NM E OF VA BCH 2100   81 79  250/ 12/ 14 1006.2R   4/ 7   3/ 7
DUCK PIER NC     2100   85 59  250/ 15/ 20 1006.6R
44056 DUCK FRF   2100                        N/A     2/ 9
OREGON INLET NC  2100   88 83  270/ 10/ 14 1007.3S
HATTERAS NC      2100   83 82  220/ 11/ 15 1008.5F
DIAMOND SHLS NC  2100          VRB 16/ 17  1008.0S   5/ 6   3/ 9
CAPE LOOKOUT NC  2000   84     240/ 11/ 16 1008.4S
$$


USA.gov is the U.S. government's official web portal to all federal, state and local government web resources and services.